Glens Falls, NY

4:55 PM EDT on October 22, 2017 (GMT -0400)
Bennett Memorial

Weather History for KGFL - March, 2014

Change the Weather History Date:

Tuesday, March 11, 2014

  Actual Average Record
Temperature  
Mean Temperature 41 °F 29 °F  
Max Temperature 54 °F 40 °F 63 °F (1977)
Min Temperature 28 °F 18 °F -6 °F (1996)
Degree Days  
Heating Degree Days 24 36  
Month to date heating degree days 525 416  
Since 1 July heating degree days 6294 6036  
Cooling Degree Days 0 0  
Month to date cooling degree days 0 0  
Year to date cooling degree days 0 0  
Moisture  
Dew Point 27 °F    
Average Humidity 57    
Maximum Humidity 85    
Minimum Humidity 28    
Precipitation  
Precipitation 0.00 in 0.09 in 1.26 in (1952)
Month to date precipitation T 1.00  
Year to date precipitation 4.53 5.94  
Sea Level Pressure  
Sea Level Pressure 29.59 in    
Wind  
Wind Speed 8 mph (WSW)    
Max Wind Speed 22 mph    
Max Gust Speed 30 mph    
Visibility 9 miles    
Events      
T = Trace of Precipitation, MM = Missing Value Source: NWS Daily Summary

Daily Weather History Graph

Daily Weather History Graph

Search for Another Location

Airport or City:

Trip Planner

Search our weather history database for the weather conditions in past years. The results will help you decide how hot, cold, wet, or windy it might be!

Date:

Astronomy

Mar. 11, 2014 Rise Set
Actual Time 7:13 AM EDT 6:55 PM EDT
Civil Twilight 6:45 AM EDT 7:24 PM EDT
Nautical Twilight 6:12 AM EDT 7:57 PM EDT
Astronomical Twilight 5:38 AM EDT 8:30 PM EDT
Moon 2:23 PM EDT (3/11) 4:11 AM EDT (3/11)
Length of Visible Light 12h 39m
Length of Day
11h 42m
Waxing Gibbous, 78% of the Moon is Illuminated
Mar 11
Waxing Gibbous
Mar 16
Full
Mar 23
Last Quarter
Mar 30
New
Apr 7
First Quarter

Hourly Weather History & Observations

Time (EDT) Temp. Windchill Dew Point Humidity Pressure Visibility Wind Dir Wind Speed Gust Speed Precip Events Conditions
12:53 AM 34.0 °F - 28.9 °F 82% 29.51 in 8.0 mi Calm Calm - N/A   Overcast
1:53 AM 34.0 °F 28.8 °F 28.0 °F 79% 29.49 in 9.0 mi SW 5.8 mph - N/A   Scattered Clouds
2:53 AM 30.9 °F 25.2 °F 26.1 °F 82% 29.49 in 7.0 mi SSW 5.8 mph - N/A   Clear
3:53 AM 33.1 °F 27.7 °F 27.0 °F 78% 29.49 in 8.0 mi South 5.8 mph - N/A   Clear
4:53 AM 30.0 °F 24.1 °F 26.1 °F 85% 29.49 in 6.0 mi South 5.8 mph - N/A   Clear
5:53 AM 32.0 °F 24.2 °F 27.0 °F 82% 29.50 in 6.0 mi South 9.2 mph - N/A   Haze
6:53 AM 41.0 °F 35.2 °F 30.9 °F 67% 29.52 in 9.0 mi SW 9.2 mph - N/A   Mostly Cloudy
7:53 AM 42.1 °F 35.7 °F 30.9 °F 65% 29.55 in 10.0 mi South 11.5 mph - N/A   Overcast
8:53 AM 42.1 °F 36.1 °F 32.0 °F 67% 29.57 in 8.0 mi SSW 10.4 mph - N/A   Mostly Cloudy
9:53 AM 44.1 °F 37.7 °F 30.9 °F 60% 29.58 in 9.0 mi SSW 12.7 mph - N/A   Clear
10:53 AM 46.0 °F 41.0 °F 30.0 °F 54% 29.58 in 10.0 mi SW 10.4 mph - N/A   Clear
11:53 AM 48.0 °F - 28.9 °F 48% 29.57 in 10.0 mi SSW 12.7 mph - N/A   Partly Cloudy
12:53 PM 53.1 °F - 26.1 °F 35% 29.57 in 10.0 mi West 10.4 mph - N/A   Partly Cloudy
1:53 PM 53.1 °F - 24.1 °F 32% 29.58 in 10.0 mi WNW 15.0 mph 23.0 mph N/A   Partly Cloudy
2:53 PM 53.1 °F - 25.0 °F 34% 29.58 in 10.0 mi NW 17.3 mph 26.5 mph N/A   Clear
3:53 PM 54.0 °F - 21.9 °F 29% 29.60 in 10.0 mi West 11.5 mph - N/A   Clear
4:53 PM 53.1 °F - 21.0 °F 29% 29.61 in 10.0 mi West 12.7 mph 21.9 mph N/A   Clear
5:53 PM 52.0 °F - 23.0 °F 32% 29.62 in 10.0 mi NW 9.2 mph - N/A   Clear
6:53 PM 48.0 °F - 24.1 °F 39% 29.65 in 10.0 mi NW 4.6 mph - N/A   Clear
7:53 PM 43.0 °F 38.8 °F 28.0 °F 56% 29.69 in 10.0 mi SW 6.9 mph - N/A   Mostly Cloudy
8:53 PM 46.0 °F 43.1 °F 26.1 °F 46% 29.70 in 10.0 mi West 5.8 mph - N/A   Mostly Cloudy
9:53 PM 46.0 °F 42.5 °F 27.0 °F 47% 29.71 in 10.0 mi West 6.9 mph - N/A   Overcast
10:53 PM 39.9 °F - 28.0 °F 63% 29.71 in 10.0 mi Calm Calm - N/A   Overcast
11:53 PM 36.0 °F - 28.9 °F 76% 29.71 in 10.0 mi Calm Calm - N/A   Overcast